Oxford, NC

2:37 PM EDT on October 23, 2019 (GMT -0400)
Henderson-Oxford

Weather History for KHNZ - September, 2019

Change the Weather History Date:

Tuesday, September 17, 2019

  Actual Average (KTDF) Record (KTDF)
Temperature  
Mean Temperature 72 °F -  
Max Temperature 84 °F 79 °F 94 °F (1958)
Min Temperature 60 °F 55 °F 38 °F (1966)
Cooling Degree Days 7    
Growing Degree Days 22 (Base 50)    
Moisture  
Dew Point 63 °F    
Average Humidity 77    
Maximum Humidity 98    
Minimum Humidity 47    
Precipitation  
Precipitation 0.00 in - - ()
Sea Level Pressure  
Sea Level Pressure 30.02 in    
Wind  
Wind Speed 3 mph (NE)    
Max Wind Speed 16 mph    
Max Gust Speed 23 mph    
Visibility 7 miles    
Events Fog , Rain    
Averages and records for this station are not official NWS values.
T = Trace of Precipitation, MM = Missing Value Source: NWS Daily Summary

Daily Weather History Graph

Daily Weather History Graph

Search for Another Location

Airport or City:

Astronomy

Sep. 17, 2019 Rise Set
Actual Time 6:57 AM EDT 7:18 PM EDT
Civil Twilight 6:32 AM EDT 7:44 PM EDT
Nautical Twilight 6:01 AM EDT 8:14 PM EDT
Astronomical Twilight 5:31 AM EDT 8:45 PM EDT
Moon 9:26 PM EDT (9/17) 9:56 AM EDT (9/17)
Length of Visible Light 13h 12m
Length of Day
12h 20m
Waning Gibbous, 89% of the Moon is Illuminated
Sep 17
Waning Gibbous
Sep 21
Last Quarter
Sep 28
New
Oct 5
First Quarter
Oct 13
Full

Hourly Weather History & Observations

Time (EDT) Temp. Heat Index Dew Point Humidity Pressure Visibility Wind Dir Wind Speed Gust Speed Precip Events Conditions
12:15 AM 67.5 °F - 63.0 °F 85% 30.00 in 0.2 mi Calm Calm - N/A   Haze
12:35 AM 66.9 °F - 63.0 °F 87% 30.00 in 1.2 mi Calm Calm - N/A   Mist
1:15 AM 68.9 °F - 63.0 °F 81% 29.99 in 1.2 mi Calm Calm - N/A   Haze
1:35 AM 66.0 °F - 62.8 °F 89% 29.99 in 0.2 mi Calm Calm - N/A Fog Fog
1:55 AM 66.6 °F - 63.1 °F 89% 29.99 in 0.5 mi Calm Calm - N/A Fog Fog
2:15 AM 65.1 °F - 62.6 °F 92% 29.99 in 0.2 mi Calm Calm - N/A Fog Fog
2:35 AM 65.5 °F - 63.1 °F 92% 29.98 in 0.2 mi Calm Calm - N/A Fog Fog
3:15 AM 65.3 °F - 62.4 °F 90% 29.97 in 0.2 mi Calm Calm - N/A Fog Fog
3:35 AM 64.4 °F - 62.6 °F 94% 29.97 in 0.2 mi Calm Calm - N/A Fog Fog
3:55 AM 64.6 °F - 62.8 °F 94% 29.97 in 0.2 mi Calm Calm - N/A Fog Fog
4:15 AM 63.9 °F - 62.2 °F 94% 29.97 in 0.2 mi Calm Calm - N/A Fog Fog
5:15 AM 63.1 °F - 62.1 °F 96% 29.97 in 0.2 mi Calm Calm - N/A Fog Fog
5:35 AM 63.0 °F - 62.2 °F 97% 29.97 in 0.2 mi Calm Calm - N/A Fog Fog
5:55 AM 61.5 °F - 60.8 °F 97% 29.97 in 5.0 mi Calm Calm - N/A   Clear
6:15 AM 61.9 °F - 61.2 °F 97% 29.97 in 0.2 mi Calm Calm - N/A Fog Fog
6:35 AM 62.2 °F - 61.7 °F 98% 29.98 in 10.0 mi Calm Calm - N/A   Clear
7:15 AM 60.4 °F - 59.9 °F 98% 29.99 in 4.0 mi Calm Calm - N/A   Clear
7:35 AM 61.0 °F - 60.3 °F 97% 30.00 in 7.0 mi Calm Calm - N/A   Clear
7:55 AM 63.1 °F - 62.1 °F 96% 30.01 in 10.0 mi Calm Calm - N/A   Clear
8:15 AM 66.4 °F - 63.9 °F 92% 30.01 in 10.0 mi Calm Calm - N/A   Clear
8:35 AM 67.8 °F - 64.4 °F 89% 30.02 in 10.0 mi Calm Calm - N/A   Clear
9:55 AM 76.6 °F - 65.7 °F 69% 30.03 in 10.0 mi East 5.8 mph - N/A   Clear
10:15 AM 77.5 °F - 65.3 °F 66% 30.03 in 10.0 mi Calm Calm - N/A   Clear
10:35 AM 79.0 °F - 63.3 °F 59% 30.03 in 10.0 mi East 5.8 mph - N/A   Clear
10:55 AM 79.0 °F - 65.1 °F 62% 30.04 in 10.0 mi NE 9.2 mph - N/A   Clear
11:15 AM 79.2 °F - 63.7 °F 59% 30.04 in 10.0 mi NE 8.1 mph - N/A   Clear
11:35 AM 80.2 °F 81.3 °F 61.7 °F 53% 30.04 in 10.0 mi NE 8.1 mph - N/A   Clear
11:55 AM 81.0 °F 81.7 °F 60.6 °F 50% 30.04 in 10.0 mi NNE 6.9 mph - N/A   Clear
12:15 PM 81.9 °F 82.2 °F 60.1 °F 47% 30.03 in 10.0 mi ENE 9.2 mph - N/A   Clear
12:35 PM 82.0 °F 82.5 °F 60.8 °F 48% 30.03 in 10.0 mi East 4.6 mph - N/A   Clear
1:15 PM 83.1 °F 83.7 °F 61.7 °F 48% 30.02 in 10.0 mi ENE 8.1 mph - N/A   Clear
1:35 PM 84.2 °F 84.8 °F 61.7 °F 47% 30.02 in 10.0 mi East 9.2 mph - N/A   Scattered Clouds
1:55 PM 83.1 °F 83.9 °F 62.2 °F 49% 30.02 in 10.0 mi ENE 8.1 mph - N/A   Scattered Clouds
2:15 PM 81.7 °F 82.7 °F 62.4 °F 52% 30.02 in 10.0 mi ENE 6.9 mph - N/A   Clear
2:35 PM 83.8 °F 84.5 °F 62.1 °F 48% 30.01 in 10.0 mi NE 5.8 mph - N/A   Clear
2:55 PM 82.9 °F 83.7 °F 62.2 °F 49% 30.01 in 10.0 mi NNE 9.2 mph - N/A   Scattered Clouds
3:15 PM 83.8 °F 84.3 °F 61.9 °F 47% 30.00 in 10.0 mi NNE 6.9 mph - N/A   Scattered Clouds
3:35 PM 83.3 °F 84.1 °F 62.2 °F 49% 30.00 in 10.0 mi NE 6.9 mph - N/A   Scattered Clouds
3:55 PM 82.9 °F 83.8 °F 62.8 °F 50% 30.00 in 10.0 mi ENE 10.4 mph - N/A   Scattered Clouds
4:15 PM 81.5 °F 82.7 °F 62.8 °F 53% 30.00 in 10.0 mi NE 10.4 mph - N/A   Scattered Clouds
4:35 PM 81.1 °F 82.3 °F 62.4 °F 53% 29.99 in 10.0 mi NE 6.9 mph - N/A   Scattered Clouds
4:55 PM 77.0 °F - 63.3 °F 63% 30.00 in 10.0 mi NE 16.1 mph 23.0 mph N/A   Mostly Cloudy
5:15 PM 72.3 °F - 66.2 °F 81% 30.02 in 10.0 mi NNE 8.1 mph - N/A Rain Light Rain
5:35 PM 71.1 °F - 66.0 °F 84% 30.03 in 10.0 mi NE 8.1 mph - N/A Rain Light Rain
5:55 PM 71.2 °F - 65.8 °F 83% 30.04 in 10.0 mi ENE 12.7 mph - N/A   Scattered Clouds
6:15 PM 70.7 °F - 66.2 °F 86% 30.04 in 10.0 mi NE 11.5 mph 16.1 mph N/A   Mostly Cloudy
6:35 PM 70.3 °F - 66.2 °F 87% 30.05 in 10.0 mi ENE 8.1 mph 19.6 mph N/A   Overcast
6:55 PM 70.0 °F - 65.3 °F 85% 30.05 in 10.0 mi ENE 11.5 mph 16.1 mph N/A   Overcast
7:15 PM 69.6 °F - 65.3 °F 86% 30.06 in 10.0 mi Calm Calm - N/A   Mostly Cloudy
7:35 PM 69.4 °F - 64.9 °F 86% 30.06 in 10.0 mi Calm Calm - N/A   Overcast
7:55 PM 69.1 °F - 63.9 °F 83% 30.06 in 10.0 mi NE 3.5 mph - N/A   Mostly Cloudy
8:15 PM 68.7 °F - 63.0 °F 82% 30.06 in 10.0 mi ENE 10.4 mph - N/A   Scattered Clouds
8:35 PM 67.8 °F - 62.6 °F 83% 30.07 in 10.0 mi NE 4.6 mph - N/A   Scattered Clouds
8:55 PM 67.1 °F - 62.6 °F 85% 30.08 in 10.0 mi Calm Calm - N/A   Scattered Clouds
9:15 PM 67.1 °F - 62.2 °F 84% 30.08 in 10.0 mi Calm Calm - N/A   Scattered Clouds
9:55 PM 66.2 °F - 62.4 °F 88% 30.09 in 3.0 mi Calm Calm - N/A   Scattered Clouds
10:15 PM 66.2 °F - 62.8 °F 89% 30.10 in 7.0 mi Calm Calm - N/A   Clear
10:35 PM 66.2 °F - 62.8 °F 89% 30.09 in 10.0 mi Calm Calm - N/A   Scattered Clouds
10:55 PM 66.4 °F - 62.8 °F 88% 30.10 in 7.0 mi Calm Calm - N/A   Scattered Clouds
11:15 PM 66.4 °F - 62.6 °F 88% 30.10 in 10.0 mi Calm Calm - N/A   Scattered Clouds
11:35 PM 66.2 °F - 62.6 °F 88% 30.09 in 10.0 mi Calm Calm - N/A   Scattered Clouds
11:55 PM 66.2 °F - 62.4 °F 88% 30.10 in 7.0 mi Calm Calm - N/A   Scattered Clouds